This is the latest recevied weather packets stored in our database for station/object VA5EVR-13. If no packets are shown the sender has not sent any weather packets the latest 10 day(s).
| Time | Temp. | Humidity | Pressure | Rain* | Wind** | Luminosity | Snow |
|---|---|---|---|---|---|---|---|
| 1777996812 | 2.22° C | 55% | 88.8 hPa | 0 mm | - | - | - |
| 1777996212 | 2.22° C | 54% | 88.8 hPa | 0 mm | - | - | - |
| 1777995612 | 2.22° C | 55% | 88.8 hPa | 0 mm | - | - | - |
| 1777995012 | 2.22° C | 56% | 88.8 hPa | 0 mm | - | - | - |
| 1777994411 | 2.22° C | 57% | 88.8 hPa | 0 mm | - | - | - |
| 1777993812 | 2.78° C | 60% | 88.8 hPa | 0 mm | - | - | - |
| 1777993212 | 2.78° C | 62% | 88.8 hPa | 0 mm | - | - | - |
| 1777992611 | 2.22° C | 65% | 88.8 hPa | 0 mm | - | - | - |
| 1777992011 | 2.22° C | 67% | 88.8 hPa | 0 mm | - | - | - |
| 1777991412 | 2.22° C | 69% | 88.8 hPa | 0 mm | - | - | - |
| 1777990812 | 1.67° C | 74% | 88.8 hPa | 0 mm | - | - | - |
| 1777989612 | 1.11° C | 79% | 88.8 hPa | 0 mm | - | - | - |
| 1777989012 | 0.56° C | 82% | 88.8 hPa | 0 mm | - | - | - |
| 1777988412 | 0° C | 84% | 88.8 hPa | 0 mm | - | - | - |
| 1777987812 | -0.56° C | 86% | 88.8 hPa | 0 mm | - | - | - |
| 1777987212 | -1.11° C | 88% | 88.8 hPa | 0 mm | - | - | - |
| 1777986612 | -2.22° C | 90% | 88.8 hPa | 0 mm | - | - | - |
| 1777986012 | -4.44° C | 92% | 88.8 hPa | 0 mm | - | - | - |
| 1777985412 | -4.44° C | 93% | 88.8 hPa | 0 mm | - | - | - |
| 1777984812 | -4.44° C | 94% | 88.8 hPa | 0 mm | - | - | - |
| 1777984211 | -4.44° C | 96% | 88.8 hPa | 0 mm | - | - | - |
| 1777983612 | -4.44° C | 96% | 88.8 hPa | 0 mm | - | - | - |
| 1777983012 | -4.44° C | 97% | 88.8 hPa | 0 mm | - | - | - |
| 1777982412 | -4.44° C | 98% | 88.8 hPa | 0 mm | - | - | - |
| 1777981812 | -4.44° C | 99% | 88.8 hPa | 0 mm | - | - | - |
* Rain latest hour (hover to see other rain measurements)
** Current wind speed in m/s (hover to see current wind gust speed)